EDT,Max TemperatureF,Mean TemperatureF,Min TemperatureF,Max Dew PointF,MeanDew PointF,Min DewpointF,Max Humidity, Mean Humidity, Min Humidity, Max Sea Level PressureIn, Mean Sea Level PressureIn, Min Sea Level PressureIn, Max VisibilityMiles, Mean VisibilityMiles, Min VisibilityMiles, Max Wind SpeedMPH, Mean Wind SpeedMPH, Max Gust SpeedMPH,PrecipitationIn, CloudCover, Events, WindDirDegrees
2013-3-1,34,32,30,30,26,25,100,85,69,29.78,29.70,29.58,10,8,1,13,8,18,T,8,Snow,338
2013-3-2,31,27,22,25,22,18,88,79,69,29.80,29.76,29.72,10,5,2,16,9,22,0.02,8,Snow,354
2013-3-3,28,25,22,21,19,17,88,79,69,29.76,29.71,29.65,10,7,2,12,6,18,0.02,8,Snow,8
2013-3-4,24,22,20,20,18,16,96,85,74,29.91,29.74,29.68,10,7,1,15,7,23,T,8,Snow,13
2013-3-5,37,30,23,27,23,18,85,75,64,30.14,30.07,29.93,10,10,9,10,5,13,T,7,Snow,11
2013-3-6,40,34,28,28,24,18,85,67,48,30.23,30.19,30.13,10,10,8,15,5,25,0.00,8,,33
2013-3-7,35,33,30,21,20,17,63,57,51,30.23,30.21,30.17,10,10,10,13,6,16,0.00,7,,15
2013-3-8,41,33,24,23,21,20,75,62,48,30.35,30.25,30.17,10,10,10,17,6,22,T,3,,355
2013-3-9,50,34,17,24,19,15,96,60,24,30.39,30.35,30.31,10,9,5,7,1,,0.00,0,,16
2013-3-10,53,37,21,25,22,19,92,60,28,30.37,30.27,30.17,10,10,8,10,3,16,T,1,,179
2013-3-11,50,42,34,32,28,26,76,59,42,30.15,30.07,29.99,10,10,10,13,3,16,T,2,,180
2013-3-12,49,43,36,45,40,32,100,84,67,29.99,29.82,29.70,10,6,0,13,6,31,0.77,7,Fog-Rain,205
2013-3-13,40,34,27,34,30,24,96,75,54,29.83,29.80,29.76,10,9,2,13,1,18,0.01,7,,7
2013-3-14,30,23,15,27,15,3,92,73,54,29.92,29.80,29.71,10,8,2,20,8,26,T,8,Snow,290
2013-3-15,34,24,14,25,16,1,85,60,35,29.93,29.70,29.56,10,5,1,14,5,22,0.04,6,Snow,252
2013-3-16,27,21,14,19,13,7,81,64,46,29.94,29.82,29.69,10,6,1,15,5,24,T,7,Snow,333
2013-3-17,22,15,7,14,4,-5,88,60,31,30.37,30.10,29.90,10,8,1,21,4,28,T,5,Snow,336
2013-3-18,34,18,2,11,2,-3,87,56,25,30.48,30.36,30.15,10,10,10,14,1,23,T,1,,177
2013-3-19,30,27,24,28,25,19,92,87,81,30.13,29.86,29.71,7,1,0,9,1,14,0.76,8,Fog-Snow,193
2013-3-20,34,28,21,27,22,16,96,75,53,29.73,29.68,29.63,10,5,0,12,4,18,0.05,8,Fog-Snow,208
2013-3-21,35,24,13,18,13,10,92,65,38,29.74,29.70,29.65,10,10,3,13,3,16,0.00,4,,227
2013-3-22,34,22,9,21,17,7,100,75,49,29.76,29.70,29.64,10,7,2,14,3,18,T,7,Snow,318
2013-3-23,34,30,25,25,21,18,88,70,51,29.81,29.69,29.64,10,4,1,21,10,32,0.04,8,Snow,298
2013-3-24,36,26,16,23,21,16,84,68,52,29.88,29.84,29.77,10,9,4,14,5,21,T,7,Snow,322
2013-3-25,44,28,11,24,18,10,92,69,45,29.86,29.73,29.61,10,10,8,12,4,17,0.00,5,,180
2013-3-26,44,36,27,24,22,19,75,57,39,29.83,29.74,29.65,10,10,9,17,5,22,0.00,4,,345
2013-3-27,43,33,22,32,27,19,92,73,53,29.96,29.88,29.80,10,9,6,14,4,21,0.01,7,Rain,359
2013-3-28,46,40,33,34,31,28,96,75,53,30.08,29.99,29.92,10,9,5,16,3,21,0.01,7,,5
2013-3-29,47,41,34,37,32,28,96,75,53,30.09,30.07,30.03,10,9,4,14,3,18,0.02,8,Rain,325
2013-3-30,48,37,25,29,20,11,92,58,23,30.13,30.10,30.08,10,10,10,16,3,21,0.00,1,,338
2013-3-31,53,37,21,36,23,18,85,57,29,30.12,29.95,29.74,10,10,8,18,6,30,0.02,2,Rain,169